Location: Corralito
(14.1667°N, 87.1833°W)
Time: 22:53:25
(UTC+00:00)

CZ-2C R/B - Pass Details

Date: 07 June 2020
Orbit: 703 x 908 km, 98.1° (Epoch: 11 July)

Event Time Altitude Azimuth Distance (km) Brightness Sun altitude
Exits shadow 02:04:54 14° 197° (SSW) 2,138 5.1 -24.1°
Maximum altitude 02:09:04 38° 260° (W) 1,268 4.4 -25.0°
Drops below altitude 10° 02:14:16 10° 328° (NNW) 2,528 6.5 -26.0°
Sets 02:16:53 0° 336° (NNW) 3,489 7.3 -26.6°
